Location: Berg
(47.2344°N, 9.5296°E)
Time: 10:30:43
(UTC+00:00)

Envisat - Pass Details

Date: 17 September 2021
Orbit: 764 x 766 km, 98.2° (Epoch: 20 October)

Event Time Altitude Azimuth Distance (km) Brightness Sun altitude
Rises 03:54:02 0° 21° (NNE) 3,244 6.8 -12.2°
Reaches altitude 10° 03:56:34 10° 31° (NNE) 2,312 6.2 -11.8°
Maximum altitude 04:01:11 34° 96° (E) 1,245 4.8 -11.0°
Drops below altitude 10° 04:05:46 10° 161° (SSE) 2,295 5.5 -10.3°
Sets 04:08:15 0° 170° (S) 3,216 6.2 -9.8°
